Weather Roundup
Issued by NWS Springfield, MO

Home | Current Version | Previous Version | Text Only | Print | Product List | Glossary On
Versions: 1 2 3 4 5 6 7 8 9 10 11 12 13 14 15 16 17 18 19 20 21 22 23 24 25 26 27 28 29 30 31 32 33 34 35 36 37 38 39 40 41 42 43 44 45 46 47 48 49 50
000
NZUS99 KSGF 292057
HRRSGF

HOURLY WEATHER
NATIONAL WEATHER SERVICE SPRINGFIELD MO
400 PM CDT SAT AUG 29 2015

......SGF CWA......

CITY           SKY/WX    TMP DP  RH WIND       PRES   REMARKS
SPRINGFIELD    CLOUDY    80  67  64 S8        30.00S
JOPLIN         CLOUDY    80  69  69 W6        29.99F
WEST PLAINS    FAIR      75  65  70 S8        30.04F
ROLLA          LGT RAIN  83  67  58 SW9       29.99F
BRANSON        MOSUNNY   82  68  61 SE12      30.01F

......SURROUNDING SGF CWA......

CITY           SKY/WX    TMP DP  RH WIND       PRES   REMARKS
CHANUTE        CLOUDY    79  65  62 VRB5      30.00F
PARSONS        FAIR      82  67  60 NW6       30.00F
COFFEYVILLE    FAIR      80  67  64 N8        29.98F
EMPORIA        CLOUDY    72  62  71 N6        30.03F

......KANSAS AND MISSOURI......

CITY           SKY/WX    TMP DP  RH WIND       PRES   REMARKS
KANSAS CTY INT CLOUDY    76  68  76 NW7       30.00F
SEDALIA        CLOUDY    81  68  64 CALM      30.00S
ST JOSEPH      CLOUDY    75  67  76 N7        30.01F
ST LOUIS       PTSUNNY   83  66  56 S8        29.99F
KIRKSVILLE     CLOUDY    77  68  73 S3        30.00F
WICHITA        CLOUDY    72  61  68 NE13      30.04F
TOPEKA         CLOUDY    76  66  71 N6        30.02F
OLATHE         CLOUDY    76  66  71 N5        30.00F

......TENNESSEE......

CITY           SKY/WX    TMP DP  RH WIND       PRES   REMARKS
MEMPHIS        NOT AVBL
NASHVILLE      PTSUNNY   81  69  67 SW5       30.07F

......ARKANSAS.......

CITY           SKY/WX    TMP DP  RH WIND       PRES   REMARKS
FAYETTEVILLE   FAIR      83  69  62 S14       29.99F
FT SMITH       FAIR      89  66  46 E9        29.95F HX  91
LITTLE ROCK    CLOUDY    88  59  37 S7        29.99F

......OKLAHOMA.......

CITY           SKY/WX    TMP DP  RH WIND       PRES   REMARKS
TULSA          FAIR      85  72  65 N10       29.95F HX  91
PONCA CITY     PTSUNNY   82  65  56 VRB3      29.99F
MCALESTER      FAIR      86  69  56 VRB6      29.97F HX  90
OKLAHOMA CITY  FAIR      91  65  41 N7        29.98F HX  93

......IOWA............

CITY           SKY/WX    TMP DP  RH WIND       PRES   REMARKS
DES MOINES     NOT AVBL
QUAD CITIES    CLOUDY    75  67  76 CALM      29.99S

......ILLINOIS........

CITY           SKY/WX    TMP DP  RH WIND       PRES   REMARKS
QUINCY         NOT AVBL
CHICAGO        CLOUDY    70  66  87 NW6       30.01R




USA.gov is the U.S. government's official web portal to all federal, state and local government web resources and services.